Tracking 27112 objects as of 26-Mar-2023
HD Live streaming from Space Station
objects crossing your sky now

MATS

Track MATS now!
10-day predictions


NORAD ID: 54227
Int'l Code: 2022-147A
Perigee: 584.9 km
Apogee: 603.2 km
Inclination: 97.7 °
Period: 96.4 minutes
Semi major axis: 6965 km
RCS: Unknown
Launch date: November 4, 2022
Source: Sweden (SWED)
Launch site: Rocket Lab Launch Complex (RLLC)
Your satellite tracking list
Your tracking list is empty




NASA's NSSDC Master Catalog

Two Line Element Set (TLE):
1 54227U 22147A   23085.50466022  .00004085  00000-0  39227-3 0  9992
2 54227  97.6567  89.3683 0013168 185.8987 174.2080 14.93539400 21153
Source of the keplerian elements: AFSPC